Location: Acequia del Cap
(41.7000°N, 0.6167°E)
Time: 01:31:18
(UTC+00:00)

Cosmos 2098 Rocket - Pass Details

Date: 07 August 2020
Orbit: 367 x 1184 km, 82.9° (Epoch: 22 September)

Event Time Altitude Azimuth Distance (km) Brightness Sun altitude
Rises 02:50:24 0° 350° (N) 2,982 7.1 -20.3°
Reaches altitude 10° 02:52:26 10° 348° (NNW) 2,179 6.3 -20.1°
Maximum altitude 02:57:21 74° 265° (W) 863 3.6 -19.4°
Enters shadow 03:01:23 22° 183° (S) 1,915 5.1 -18.9°
